Overview Statistics Trail Chart Weather Telemetry Raw packets
 

This is the latest recevied weather packets stored in our database for station/object KI6PPU. If no packets are shown the sender has not sent any weather packets the latest 10 day(s).

<< 1 2 3 4 >>
Time Temp. Humidity Pressure Rain* Wind** Luminosity Snow
1788577774 17.78° C 60% 1016.6 hPa 0 mm - 0 W/m² -
1788577469 18.33° C 56% 1016.5 hPa 0 mm - 0 W/m² -
1788577168 17.78° C 60% 1016.6 hPa 0 mm - 0 W/m² -
1788576863 18.33° C 58% 1016.6 hPa 0 mm - 0 W/m² -
1788576560 18.33° C 59% 1016.4 hPa 0 mm - 0 W/m² -
1788576260 18.33° C 59% 1016.4 hPa 0 mm - 0 W/m² -
1788575956 18.33° C 58% 1016.4 hPa 0 mm - 0 W/m² -
1788575651 18.89° C 56% 1016.3 hPa 0 mm - 0 W/m² -
1788575349 18.89° C 57% 1016.2 hPa 0 mm - 0 W/m² -
1788575045 20° C 56% 1016.3 hPa 0 mm - 1 W/m² -
1788574740 20° C 53% 1016.3 hPa 0 mm - 4 W/m² -
1788574434 20° C 53% 1016.3 hPa 0 mm - 7 W/m² -
1788574130 20° C 53% 1016.4 hPa 0 mm - 9 W/m² -
1788573819 20.56° C 51% 1016.1 hPa 0 mm - 11 W/m² -
1788573518 20.56° C 51% 1016.4 hPa 0 mm - 15 W/m² -
1788573217 21.11° C 50% 1016.2 hPa 0 mm - 16 W/m² -
1788572911 21.67° C 46% 1016.1 hPa 0 mm - 18 W/m² -
1788572607 21.67° C 49% 1016.4 hPa 0 mm - 20 W/m² -
1788572307 21.67° C 46% 1016.2 hPa 0 mm - 22 W/m² -
1788572003 22.22° C 44% 1016.2 hPa 0 mm - 23 W/m² -
1788571698 22.22° C 45% 1016.1 hPa 0 mm - 24 W/m² -
1788571394 22.22° C 45% 1016.2 hPa 0 mm - 26 W/m² -
1788571091 22.22° C 44% 1016.2 hPa 0 mm - 28 W/m² -
1788570787 22.22° C 43% 1016.1 hPa 0 mm - 28 W/m² -
1788570487 22.22° C 42% 1016.1 hPa 0 mm - 29 W/m² -

* Rain latest hour (hover to see other rain measurements)
** Current wind speed in m/s (hover to see current wind gust speed)